Retour au catalogue

STARLINK-30871

ActifCommunicationsVLEO
NORAD 58228·PAYLOAD·🇺🇸 United States

Lancé Nov 3, 2023 depuis Cape Canaveral Space Force Station

Loading…

Prochains Passages (prochaines 24 heures)

TLE

FraisSource: CelesTrak SupGP

Époque: Sep 15, 2026, 02:38 UTC

1 58228C 23170Y   26258.11020833  .00000659  00000+0  23864-4 0  2583
2 58228  43.0005 204.6545 0001218 264.5338 203.1231 15.27577747    13

Suivez STARLINK-30871 en temps réel avec AllMySat

Download on the App Store